Regional Weather Roundup
Issued by NWS

Home | Current Version | Previous Version | Graphics & Text | Print | Product List | Glossary On
Versions: 1 2 3 4 5 6 7 8 9 10 11 12 13 14 15 16 17 18 19 20 21 22 23 24 25 26 27 28 29 30 31 32 33 34 35 36 37 38 39 40 41 42 43 44 45 46 47 48 49 50
000
ASUS45 KTFX 291310
RWRMT
MONTANA REGIONAL WEATHER ROUNDUP
NATIONAL WEATHER SERVICE GREAT FALLS MT
700 AM MDT FRI MAY 29 2015

NOTE: "FAIR" INDICATES FEW OR NO CLOUDS BELOW 12000 FEET WITH NO
SIGNIFICANT WEATHER AND/OR OBSTRUCTIONS TO VISIBILITY.

MTZ001>007-043-291400-
WEST OF THE DIVIDE

CITY           SKY/WX    TMP DP  RH WIND       PRES   REMARKS
KALISPELL      PTSUNNY   53  42  66 N3        30.19S
MISSOULA       MOSUNNY   53  41  63 SE10      30.20S
BUTTE          SUNNY     42  40  92 SE3       30.27S
MULLAN PASS    FOG       42  41  96 SE8       30.20R VSB 1/4
DEER LODGE       N/A     46  45  93 CALM      30.29S
EUREKA           N/A     48  46  93 CALM      30.20R
HAMILTON         N/A     48  43  81 S5        30.21R
LIBBY            N/A     50  48  93 CALM      30.19S
PLAINS           N/A     47  44  89 CALM      30.17S VSB 0
RONAN            N/A     45  43  93 CALM      30.21S
THOMPSON FALLS   N/A     51  49  93 E6        30.20R
$$

MTZ008-052>055-291400-
SOUTHWEST MONTANA

CITY           SKY/WX    TMP DP  RH WIND       PRES   REMARKS
BOZEMAN        CLOUDY    48  45  89 S5        30.28S
DILLON         CLOUDY    46  43  89 CALM      30.27R
W YELLOWSTONE  SUNNY     34  34 100 CALM      30.31R
THREE FORKS      N/A     49  29  46 CALM      30.24S
$$

MTZ009-010-012-014-046-048-049-054-291400-
EAST SLOPES AND CENTRAL MONTANA

CITY           SKY/WX    TMP DP  RH WIND       PRES   REMARKS
CUT BANK       PTSUNNY   39  39 100 SE7       30.27F FOG
GREAT FALLS    CLOUDY    46  44  93 E5        30.28S FOG
MALMSTROM AFB  CLOUDY    46  45  97 E3        30.29S
HELENA         MOSUNNY   50  43  77 NE3       30.27S
CONRAD           N/A     40  40 100 CALM      30.27S
$$

MTZ011-013-016-021-045-047-050-051-291400-
NORTH CENTRAL MONTANA

CITY           SKY/WX    TMP DP  RH WIND       PRES   REMARKS
HAVRE          SUNNY     39  38  96 NE5       30.31S
LEWISTOWN      CLOUDY    46  40  79 CALM      30.31S
N BAR RANCH    CLOUDY    43  39  87 NE5       30.34R
CHINOOK          N/A     39  39 100 E3        30.33S
FORT BENTON      N/A     48  43  81 N3        30.31S
$$

MTZ017>020-022>027-061-062-291400-
NORTHEAST MONTANA

CITY           SKY/WX    TMP DP  RH WIND       PRES   REMARKS
GLASGOW        SUNNY     41  35  79 NE5       30.34R
JORDAN           N/A     44  39  82 NE5       30.33R
SIDNEY         CLOUDY    45  30  57 N10       30.30R
WOLF POINT     SUNNY     41  35  79 N8        30.35R
MALTA            N/A     40  35  82 CALM      30.29R
PLENTYWOOD       N/A     39  30  70 N12       30.31R WCI  32
POPLAR           N/A     37  34  87 N8        30.35R WCI  31
SCOBEY           N/A     35  31  86 MISG      30.29R
$$

MTZ028>42-056>058-291400-
SOUTHCENTRAL AND SOUTHEAST MONTANA

CITY           SKY/WX    TMP DP  RH WIND       PRES   REMARKS
BAKER          CLOUDY    43  36  76 N15       30.25R
BILLINGS       CLOUDY    46  42  86 NE6       30.31R
LIVINGSTON     CLOUDY    47  46  97 E14       30.29R FOG
MILES CITY     PTSUNNY   43  35  73 N9        30.30R
BIG TIMBER       N/A     45  45 100 N7        30.32R VSB 1
EKALAKA          N/A     41  36  82 NW10      30.20R
LAUREL           N/A     46  41  83 N3        30.27R
ROUNDUP          N/A     46  37  70 N5        30.21R
$$

REGIONAL REPORTS...DAKOTAS

CITY           SKY/WX    TMP DP  RH WIND       PRES   REMARKS
WILLISTON      CLOUDY    45  32  60 N13       30.28R
MINOT          CLOUDY    45  35  68 N18G24    30.21R
DICKINSON      CLOUDY    44  36  73 N13       30.20R
BEACH          CLOUDY    41  36  81 N15       30.27R
CROSBY         CLOUDY    41  32  70 N13       30.30R
WATFORD CITY   CLOUDY    43  32  65 N12       30.25R
BISMARCK       CLOUDY    49  43  80 N18       30.16R
GRAND FORKS    CLOUDY    45  40  82 N26G36    30.08R
FARGO          CLOUDY    50  45  83 N24G36    30.01R
BUFFALO SD       N/A     46  43  89 N18       30.14R
RAPID CITY     LGT RAIN  50  49  96 N21G31    30.12R
$$

REGIONAL REPORTS...WYOMING/IDAHO/WASHINGTON

CITY           SKY/WX    TMP DP  RH WIND       PRES   REMARKS
GILLETTE       LGT RAIN  45  44  97 N12       30.23R FOG
SHERIDAN       CLOUDY    46  45  96 N10       30.28R FOG
BUFFALO WY     LGT RAIN  46  45  96 N15G28    30.27R FOG
CODY           PTSUNNY   46  46 100 N6        30.29R
YELLOWSTONE LA   N/A     33  31  92 CALM      30.35R
IDAHO FALLS    SUNNY     45  42  89 NE7       30.24R
SALMON         PTCLDY    45  43  93 CALM      30.23R
BOISE          CLEAR     59  46  62 S9        30.10R
SPOKANE        MOCLDY    56  51  84 NE10      30.07R
$$

REGIONAL REPORTS...ALBERTA

CITY           SKY/WX    TMP DP  RH WIND       PRES   REMARKS
EDMONTON       SUNNY     39  30  70 E5        30.31R
CALGARY        PTSUNNY   45  39  81 SE12      30.23S
LETHBRIDGE     PTSUNNY   41  39  93 SE7       30.26S
MEDICINE HAT   MOSUNNY   39  34  81 NE3       30.31S
$$

REGIONAL REPORTS...SASKATCHEWAN

CITY           SKY/WX    TMP DP  RH WIND       PRES   REMARKS
SWIFT CURRENT  SUNNY     37  32  81 SE7       30.33S
SASKATOON      MOSUNNY   39  30  70 NE2       30.41R
$$


USA.gov is the U.S. government's official web portal to all federal, state and local government web resources and services.